Regional Weather Roundup
Issued by NWS Raleigh/Durham, NC

Home | Current Version | Previous Version | Text Only | Print | Product List | Glossary On
Versions: 1 2 3 4 5 6 7 8 9 10 11 12 13 14 15 16 17 18 19 20 21 22 23 24 25 26 27 28 29 30 31 32 33 34 35 36 37 38 39 40 41 42 43 44 45 46 47 48 49 50
000
ASUS42 KRAH 180610
RWRRAH
NORTH CAROLINA WEATHER ROUNDUP
NATIONAL WEATHER SERVICE RALEIGH NC
200 AM EDT THU SEP 18 2014

NOTE: "FAIR" INDICATES FEW OR NO CLOUDS BELOW 12,000 FEET WITH NO
SIGNIFICANT WEATHER AND/OR OBSTRUCTIONS TO VISIBILITY.

NCZ001-053-055-056-065-067-180700-
WESTERN NORTH CAROLINA

CITY           SKY/WX    TMP DP  RH WIND       PRES   REMARKS
ASHEVILLE      CLOUDY    62  60  93 CALM      30.01F
JEFFERSON      NOT AVBL
HICKORY        NOT AVBL
RUTHERFORDTON  PTCLDY    60  59  99 NW6       29.98F FOG
MOUNT AIRY     NOT AVBL
BOONE          CLEAR     54  54 100 CALM      30.04F FOG
$$

NCZ021-022-025-041-071-084-088-180700-
CENTRAL NORTH CAROLINA

CITY           SKY/WX    TMP DP  RH WIND       PRES   REMARKS
CHARLOTTE      MOCLDY    65  62  90 NW5       29.96  FOG
GREENSBORO     CLOUDY    64  61  90 CALM      29.96F
WINSTON-SALEM  CLEAR     62  59  90 CALM      29.98S
RALEIGH-DURHAM PTCLDY    65  59  81 SE3       29.96F
FORT BRAGG     CLOUDY    69  64  84 NE3       29.94S
FAYETTEVILLE   MOCLDY    68  64  87 NE5       29.93F
BURLINGTON     CLEAR     62  59  90 CALM      29.96S FOG
LAURINBURG     MOCLDY    68  66  93 E5        29.94S
$$

NCZ011-015-027-028-043-044-047-080-103-180700-
NORTHEASTERN NORTH CAROLINA

CITY           SKY/WX    TMP DP  RH WIND       PRES   REMARKS
ROCKY MT-WILSO MOCLDY    62  60  93 CALM      29.95F
GREENVILLE     PTCLDY    63  61  94 CALM      29.96F FOG
WASHINGTON     PTCLDY    62  60  95 CALM      29.95R
ELIZABETH CITY NOT AVBL
MANTEO         MOCLDY    70  59  68 NE12      29.93F
CAPE HATTERAS  CLEAR     69  62  78 NE8       29.91F
$$

NCZ078-087-090-091-093-098-101-180700-
SOUTHEASTERN NORTH CAROLINA

CITY           SKY/WX    TMP DP  RH WIND       PRES   REMARKS
LUMBERTON      MOCLDY    69  66  90 NE5       29.91F
GOLDSBORO      MOCLDY    65  64  97 CALM      29.93S
KINSTON        MOCLDY    65  63  93 CALM      29.95S
KENANSVILLE    CLEAR     64  63  94 CALM      29.94F
NEW BERN       CLEAR     68  62  81 N6        29.94S
CHERRY POINT   CLEAR     69  64  84 N9        29.93S
BEAUFORT       CLEAR     70  66  87 NE5       29.91S
JACKSONVILLE   PTCLDY    67  64  90 N5        29.92S
WILMINGTON     PTCLDY    68  66  93 NE8       29.90F
$$




USA.gov is the U.S. government's official web portal to all federal, state and local government web resources and services.